sat.trackr.live / text

‹ back to catalog

KUIPER-00051

NORAD 64511 · 2025-134M

PAYLOAD ACTIVE UNKNOWN

§ Identity

Operator
Country
US
Launch date
2025-06-23
Launch site
AFETR
Launch vehicle
Mass (kg)
RCS (m²)

External: N2YO · Heavens-Above · Gunter

§ Orbital elements

Epoch: 2026-09-21T21:17:30.657696Z

Period
97.30 min
Inclination
51.9007°
Eccentricity
0.0000836
Mean motion
14.79931059 rev/d
Perigee alt
629.0 km
Apogee alt
630.1 km
Semi-major
7,007.7 km
B*
2.3933e-5
RAAN
79.1474°
Arg perigee
117.0463°
Mean anomaly
243.0585°
Rev number
6,921

§ Raw data

KUIPER-000511 64511U 25134M   26264.88716039 -.00000039  00000+0  23933-4 0  99902 64511  51.9007  79.1474 0000836 117.0463 243.0585 14.79931059 69215

JSON: /api/v1/satellites/64511 · /tle

For live sub-satellite position, see the globe view (requires WebGL).

§ Visibility from observer

Set your observer location to see the next 7 days of passes ≥ 10°. The values pass through the URL so the page stays shareable.

No JS? Fill the form by hand. The geolocation button needs JavaScript.